Location: Desert Center
(33.7130°N, 115.4010°W)
Time: 10:10:41
(UTC-08:00)

Daily predictions for brighter satellites

Satellite Brightness Start Highest point End
(mag) Time Altitude Azimuth Time Altitude Azimuth Time Altitude Azimuth
Cosmos 1515 Rocket 3.6 17:19:14 10° N 17:23:40 63° E 17:28:03 10° SSE
Cosmos 1151 Rocket 3.4 17:20:10 10° N 17:24:12 39° E 17:28:13 10° SSE
Cosmos 1980 3.7 17:19:04 10° SSW 17:24:44 81° ESE 17:30:26 10° NNE
SKYMED 2 3.8 17:25:15 10° NNE 17:29:29 52° E 17:33:43 10° S
Abrixas 3.3 17:28:57 10° WSW 17:31:44 42° NW 17:34:34 10° NE
CORIOLIS 4.3 17:26:58 10° SSE 17:32:18 84° WSW 17:37:41 10° NNW
Cosmos 1500 Rocket 3.8 17:29:17 10° S 17:33:35 75° W 17:37:56 10° N
Cosmos 1125 Rocket 3.6 17:29:17 10° N 17:34:21 52° ENE 17:39:24 10° SSE
SOZ 4.4 17:33:20 10° SW 17:35:46 53° SE 17:37:54 10° NE
SPOT 3 Rocket 3.8 17:30:57 10° S 17:36:04 74° WSW 17:41:15 10° NNW
SJ-6B 4.4 17:35:15 10° ESE 17:37:54 17° ENE 17:40:35 10° NNE
Thor Agena Rocket 4.3 17:33:36 10° N 17:38:43 57° WNW 17:43:45 10° SSW
Cosmos 304 Rocket 4.2 17:34:25 10° S 17:38:55 41° ESE 17:43:25 10° NNE
Cosmos 2333 Rocket 2.8 17:36:21 10° SSW 17:41:54 59° WNW 17:47:28 10° NNE
CZ-2C R/B 3.8 17:38:45 10° S 17:43:32 44° W 17:48:14 10° NNW
Cosmos 1703 4.0 17:41:04 10° SSE 17:44:32 31° E 17:48:00 10° NNE
Sich 1 4.2 17:42:29 10° SE 17:45:57 23° E 17:49:26 10° NE
Cosmos 1626 3.2 17:43:41 10° SE 17:46:43 24° E 17:49:46 10° NE
Cosmos 2219 Rocket 3.5 17:41:42 10° SW 17:46:58 40° WNW 17:52:16 10° N
CENTAUR R/B 4.5 17:45:44 10° W 17:50:24 22° NW 17:55:30 10° N
Cosmos 1633 Rocket 4.2 17:48:33 10° SE 17:52:02 23° E 17:55:30 10° NE
BREEZE-M DEB (TANK) 3.2 17:50:30 10° WSW 17:53:01 33° NW 17:54:57 12° NNE
NOAA 12 4.5 17:49:20 10° SE 17:54:11 40° ENE 17:59:03 10° N
IDEFIX/ARIANE 42P 4.5 17:52:08 10° SSW 17:56:48 34° W 18:01:31 10° NNW
Cosmos 1455 3.7 17:55:13 10° NNE 17:58:39 17° E 18:00:32 10° ESE
Cosmos 1634 Rocket 4.3 17:51:52 10° N 17:58:00 72° W 18:04:07 10° S
Cosmos 1461 2.9 17:54:42 10° SSW 17:58:55 66° ESE 18:02:30 13° NE
OTV 4 0.3 17:56:38 10° WNW 17:59:37 87° N 18:01:32 20° ESE
Iridium 4 Rocket 4.4 17:56:55 10° SE 18:00:14 20° E 18:01:17 18° ENE
Cosmos 2278 Rocket 2.1 17:54:39 10° NNW 18:00:21 76° ENE 18:06:01 10° SSE
Cosmos 2058 3.0 17:57:38 10° S 18:01:45 77° W 18:05:51 10° N
Aureole 2 Rocket 3.2 18:00:48 10° SSW 18:04:20 58° WNW 18:08:13 10° N
Atlas Centaur 2 4.2 18:01:56 10° WSW 18:05:27 18° SSW 18:08:31 10° SSE
Cosmos 1340 Rocket 2.8 18:01:47 10° S 18:05:44 86° W 18:09:40 10° N
Cosmos 1726 2.9 18:03:07 10° NNW 18:06:49 54° W 18:10:29 10° S
Intelsat 5-1 Rocket 3.7 18:05:07 10° SW 18:07:02 16° S 18:09:46 10° SE
Meteor 1-27 4.3 18:05:25 10° N 18:11:16 85° E 18:17:06 10° S
Cosmos 1484 Rocket 4.1 18:08:56 10° S 18:12:39 43° W 18:16:26 10° NNW
Tiangong 1 3.5 18:13:57 10° SSE 18:14:20 11° SE 18:14:20 11° SE
Resurs 01 Rocket 2.9 18:18:15 22° NE 18:18:15 22° NE 18:20:29 10° NNE
Cosmos 1300 4.1 18:13:34 10° NNW 18:17:11 40° W 18:20:47 10° SSW
COSMO-SKYMED 1 4.0 18:13:24 10° N 18:17:27 39° WNW 18:21:29 10° SW
Cosmos 1707 Rocket 3.6 18:14:48 10° N 18:19:02 50° E 18:23:14 10° SSE
Cosmos 2237 Rocket 3.7 18:15:45 10° SW 18:20:50 35° WNW 18:25:59 10° N
ALOS 2.8 18:19:23 10° SE 18:23:35 34° ENE 18:27:47 10° N
Cosmos 1356 Rocket 3.1 18:20:12 10° S 18:24:11 79° E 18:27:46 13° N
Cosmos 1666 Rocket 3.4 18:21:01 10° S 18:25:20 74° E 18:29:41 10° N
SL-16 R/B 2.3 18:21:15 10° SSW 18:26:53 78° WNW 18:32:35 10° NNE
BREEZE-M DEB (TANK) 4.4 18:24:06 10° S 18:27:42 29° ESE 18:29:35 26° E
Hubble Space Telescope 3.8 18:32:17 10° SSW 18:32:43 10° SSW 18:33:08 10° SSW
Cosmos 773 Rocket 3.9 18:28:45 10° S 18:33:48 63° ESE 18:36:39 26° NNE
BREEZE M DEB (TANK) 4.1 18:38:25 10° NNW 18:38:28 10° NNW 18:38:28 10° NNW
FREGAT/IRIS 2.9 18:38:15 10° S 18:41:17 66° W 18:44:19 10° NNW
Aureole 1 Rocket 3.5 18:36:47 10° S 18:41:35 71° ESE 18:46:17 18° NNE
Cosmos 2297 3.6 18:36:12 10° NNW 18:41:56 78° ENE 18:47:39 10° SSE
Lacrosse 5 rocket 1.1 18:44:48 10° NW 18:48:42 87° SW 18:48:59 76° SSE
OAO 1 Rocket 4.3 18:43:34 10° W 18:48:54 85° SSW 18:50:12 53° ESE
USA 215 3.1 18:52:54 33° ESE 18:56:06 73° NE 19:02:37 10° NW
SL-19 R/B 4.3 18:51:55 10° SSE 18:57:58 90° SW 19:03:41 10° NNW
Cosmos 1470 Rocket 4.5 18:53:47 10° S 18:56:25 35° SSE 18:56:25 35° SSE
ATLAS 2A CENTAUR R/B 3.7 19:02:47 10° S 19:03:25 14° S 19:03:25 14° S
FENGYUN 3A 3.6 19:01:47 10° SSE 19:07:08 85° WSW 19:12:32 10° NNW
Cosmos 2026 Rocket 4.0 19:01:29 10° S 19:06:50 55° ESE 19:06:50 55° ESE
Haruka 4.3 19:08:41 10° W 19:13:39 77° S 19:18:25 41° ESE
H-2A ROCKET BODY 2.8 18:55:28 10° W 19:14:21 61° S 19:15:30 52° SE
FengYun 1-2 T 4.5 19:10:22 10° S 19:15:54 67° WSW 19:21:25 10° NNW
Spot 2 Rocket 3.7 19:13:19 10° S 19:18:20 68° WSW 19:23:22 10° NNW
Cosmos 1603 4.0 19:25:47 10° SSW 19:31:19 62° WNW 19:31:20 62° WNW
Milstar 3 4.3 19:27:12 10° WSW 19:32:53 29° SSW 19:35:58 22° SSE
USA 229 DEB 4.4 19:33:39 10° SW 19:40:12 47° NW 19:42:09 38° NNW
USA 229 4.4 19:33:45 10° SW 19:40:18 48° NW 19:42:12 39° NNW
Resurs 01 Rocket 4.3 19:55:49 14° NW 19:55:49 14° NW 19:56:44 10° NW
